TimeEET,TemperatureF,Dew PointF,Humidity,Sea Level PressureIn,VisibilityMPH,Wind Direction,Wind SpeedMPH,Gust SpeedMPH,PrecipitationIn,Events,Conditions,WindDirDegrees,DateUTC
12:20 AM,51.8,39.2,62,30.27,6.2,NNW,10.4,-,N/A,,Scattered Clouds,330,2011-11-29 22:20:00
12:50 AM,53.6,39.2,58,30.27,6.2,NW,11.5,-,N/A,,Scattered Clouds,320,2011-11-29 22:50:00
1:20 AM,53.6,39.2,58,30.27,6.2,NNW,11.5,-,N/A,,Scattered Clouds,330,2011-11-29 23:20:00
1:50 AM,53.6,39.2,58,30.27,6.2,NNW,12.7,-,N/A,,Scattered Clouds,330,2011-11-29 23:50:00
2:20 AM,51.8,39.2,62,30.27,6.2,NNW,13.8,-,N/A,,Scattered Clouds,330,2011-11-30 00:20:00
2:50 AM,51.8,41.0,67,30.27,6.2,NNW,12.7,-,N/A,,Scattered Clouds,330,2011-11-30 00:50:00
3:20 AM,51.8,41.0,67,30.27,6.2,NNW,11.5,-,N/A,,Scattered Clouds,330,2011-11-30 01:20:00
3:50 AM,53.6,41.0,62,30.27,6.2,NNW,10.4,-,N/A,,Scattered Clouds,340,2011-11-30 01:50:00
4:20 AM,53.6,41.0,62,30.27,6.2,NNW,11.5,-,N/A,,Scattered Clouds,340,2011-11-30 02:20:00
4:50 AM,51.8,41.0,67,30.24,6.2,NNW,10.4,-,N/A,,Scattered Clouds,330,2011-11-30 02:50:00
5:20 AM,51.8,41.0,67,30.24,6.2,NNW,8.1,-,N/A,,Scattered Clouds,340,2011-11-30 03:20:00
5:50 AM,51.8,42.8,71,30.24,6.2,NNW,9.2,-,N/A,,Scattered Clouds,340,2011-11-30 03:50:00
6:20 AM,51.8,41.0,67,30.24,6.2,NNW,10.4,-,N/A,,Partly Cloudy,340,2011-11-30 04:20:00
6:50 AM,51.8,41.0,67,30.24,6.2,NNW,9.2,-,N/A,,Scattered Clouds,340,2011-11-30 04:50:00
7:20 AM,51.8,41.0,67,30.24,6.2,NNW,6.9,-,N/A,,Partly Cloudy,330,2011-11-30 05:20:00
7:50 AM,51.8,41.0,67,30.27,6.2,NNW,9.2,-,N/A,,Partly Cloudy,340,2011-11-30 05:50:00
8:20 AM,53.6,41.0,62,30.27,6.2,NNW,6.9,-,N/A,,Partly Cloudy,340,2011-11-30 06:20:00
8:50 AM,53.6,42.8,67,30.27,6.2,North,9.2,-,N/A,,Partly Cloudy,350,2011-11-30 06:50:00
9:20 AM,53.6,42.8,67,30.27,6.2,NNW,11.5,-,N/A,,Partly Cloudy,340,2011-11-30 07:20:00
9:50 AM,55.4,42.8,63,30.27,6.2,NNW,11.5,-,N/A,,Partly Cloudy,340,2011-11-30 07:50:00
10:20 AM,57.2,42.8,59,30.27,6.2,NNW,11.5,-,N/A,,Partly Cloudy,340,2011-11-30 08:20:00
10:50 AM,57.2,42.8,59,30.27,6.2,North,13.8,-,N/A,,Partly Cloudy,350,2011-11-30 08:50:00
11:20 AM,57.2,42.8,59,30.27,6.2,NNW,13.8,-,N/A,,Partly Cloudy,340,2011-11-30 09:20:00
11:50 AM,59.0,41.0,51,30.27,6.2,North,13.8,-,N/A,,Partly Cloudy,350,2011-11-30 09:50:00
12:20 PM,59.0,41.0,51,30.27,6.2,NNW,13.8,-,N/A,,Partly Cloudy,340,2011-11-30 10:20:00
12:50 PM,60.8,42.8,52,30.24,6.2,NNW,15.0,-,N/A,,Partly Cloudy,340,2011-11-30 10:50:00
1:20 PM,60.8,42.8,52,30.24,6.2,NNW,13.8,-,N/A,,Partly Cloudy,340,2011-11-30 11:20:00
1:50 PM,60.8,41.0,48,30.24,6.2,NNW,11.5,-,N/A,,Partly Cloudy,340,2011-11-30 11:50:00
2:20 PM,60.8,41.0,48,30.24,6.2,NNW,11.5,-,N/A,,Partly Cloudy,340,2011-11-30 12:20:00
2:50 PM,60.8,41.0,48,30.24,6.2,NNW,11.5,-,N/A,,Partly Cloudy,330,2011-11-30 12:50:00
3:20 PM,60.8,41.0,48,30.24,6.2,NW,11.5,-,N/A,,Partly Cloudy,320,2011-11-30 13:20:00
3:50 PM,60.8,42.8,52,30.24,6.2,NNW,9.2,-,N/A,,Partly Cloudy,330,2011-11-30 13:50:00
4:20 PM,59.0,41.0,51,30.24,6.2,North,10.4,-,N/A,,Partly Cloudy,360,2011-11-30 14:20:00
4:50 PM,57.2,41.0,55,30.24,6.2,North,10.4,-,N/A,,Partly Cloudy,360,2011-11-30 14:50:00
5:20 PM,57.2,41.0,55,30.24,6.2,NNW,8.1,-,N/A,,Partly Cloudy,340,2011-11-30 15:20:00
5:50 PM,55.4,41.0,58,30.24,6.2,NNW,6.9,-,N/A,,Partly Cloudy,330,2011-11-30 15:50:00
6:20 PM,53.6,41.0,62,30.24,6.2,NW,6.9,-,N/A,,Partly Cloudy,320,2011-11-30 16:20:00
6:50 PM,53.6,41.0,62,30.27,6.2,NW,5.8,-,N/A,,Partly Cloudy,320,2011-11-30 16:50:00
7:20 PM,53.6,41.0,62,30.27,6.2,NW,8.1,-,N/A,,Partly Cloudy,320,2011-11-30 17:20:00
7:50 PM,53.6,41.0,62,30.27,6.2,NNW,8.1,-,N/A,,Partly Cloudy,330,2011-11-30 17:50:00
8:20 PM,53.6,41.0,62,30.27,6.2,NNW,8.1,-,N/A,,Partly Cloudy,330,2011-11-30 18:20:00
8:50 PM,53.6,41.0,62,30.27,6.2,NW,6.9,-,N/A,,Partly Cloudy,320,2011-11-30 18:50:00
9:20 PM,53.6,41.0,62,30.27,6.2,NW,6.9,-,N/A,,Partly Cloudy,310,2011-11-30 19:20:00
9:50 PM,53.6,41.0,62,30.27,6.2,NNW,10.4,-,N/A,,Partly Cloudy,330,2011-11-30 19:50:00
10:20 PM,53.6,41.0,62,30.27,6.2,WNW,5.8,-,N/A,,Partly Cloudy,300,2011-11-30 20:20:00
10:50 PM,51.8,39.2,62,30.27,6.2,North,5.8,-,N/A,,Partly Cloudy,360,2011-11-30 20:50:00
11:20 PM,50.0,39.2,66,30.27,6.2,NNE,5.8,-,N/A,,Partly Cloudy,20,2011-11-30 21:20:00
11:50 PM,50.0,41.0,71,30.27,6.2,NNE,4.6,-,N/A,,Partly Cloudy,20,2011-11-30 21:50:00